Regional Weather Roundup
Issued by NWS

Home | Current Version | Previous Version | Graphics & Text | Print | Product List | Glossary On
Versions: 1 2 3 4 5 6 7 8 9 10 11 12 13 14 15 16 17 18 19 20 21 22 23 24 25 26 27 28 29 30 31 32 33 34 35 36 37 38 39 40 41 42 43 44 45 46 47 48 49 50
290
ASUS43 KLOT 130503
RWRIL

ILLINOIS REGIONAL WEATHER ROUNDUP
NATIONAL WEATHER SERVICE CHICAGO/ROMEOVILLE IL
1100 PM CST FRI FEB 12 2016

NOTE: "FAIR" INDICATES FEW OR NO CLOUDS BELOW 12,000 FEET WITH NO
SIGNIFICANT WEATHER AND/OR OBSTRUCTIONS TO VISIBILITY.

* THESE STATIONS ARE NOT UNDER NWS QUALITY CONTROL. THEY ALSO MAY NOT
  REPORT WEATHER SUCH AS PRECIPITATION OR FOG.

ILZ001-002-007-009-015-016-024-130600-
NORTHWEST ILLINOIS

CITY           SKY/WX    TMP DP  RH WIND       PRES   REMARKS
MOLINE         CLEAR      9  -4  55 NW13G21   30.55R WCI  -7
STERLING*      CLEAR     10  -8  44 N15G21    30.48R WCI  -6
$$

ILZ003-004-008-010-011-017-018-130600-
NORTH CENTRAL ILLINOIS

CITY           SKY/WX    TMP DP  RH WIND       PRES   REMARKS
ROCKFORD       CLEAR      8  -8  48 N13       30.50R WCI  -8
FREEPORT*      CLEAR      7  -8  51 N15G22    30.51R WCI -11
ROCHELLE*      PTCLDY     8  -7  49 N18       30.49R WCI -10
DE KALB*       PTCLDY     8  -6  52 N21       30.46R WCI -11
$$

ILZ005-006-012>014-019>023-130600-
NORTHEAST ILLINOIS

CITY           SKY/WX    TMP DP  RH WIND       PRES   REMARKS
CHICAGO-OHARE  PTCLDY     8  -8  48 N21       30.44R WCI -12
CHICAGO-MIDWAY PTCLDY    10  -9  42 NW21      30.45R WCI  -9
AURORA         CLEAR      9  -5  53 N14G26    30.47R WCI  -7
LANSING*       CLEAR     10  -8  44 NW16G24   30.43R WCI  -7
WAUKEGAN       CLEAR      6  -9  50 N12G21    30.44R WCI  -9
DUPAGE AIRPORT CLEAR      8  -9  45 N20G29    30.45R WCI -11
WHEELING       CLEAR      7  -8  50 NW15G23   30.46R WCI -10
MORRIS*        PTCLDY    10  -4  51 N8        30.43R WCI  -1
NORTHERLY ISL    N/A     11  -5  48 NW18        N/A  WCI  -7
$$

LMZ740>746-130600-
SOUTHERN LAKE MICHIGAN

STATION/POSITION SKY/WX   TEMP    WIND        PRES    VSBY  WAVE
                          AIR SEA DIR/SP/G                  HT/PER
                          (F)     (DEG/KT/KT) (MB)    (MI)  (FT/S)
HARRISON CRIB              12     310/ 29/ 32   N/A
BURNHAM HARBOR             11     290/ 13/ 20   N/A
CALUMET HARBOR             11     310/ 12/ 21 1029.2R
BURNS HARBOR               16     340/ 19     1028.1R
MICHIGAN CITY              15     300/ 31/ 33   N/A
$$

ILZ025>027-034>036-040-047-049-050-058-095>099-130600-
WEST-CENTRAL ILLINOIS

CITY           SKY/WX    TMP DP  RH WIND       PRES   REMARKS
QUINCY         CLOUDY    11   1  64 NW16      30.56R WCI  -6
MACOMB*        CLOUDY    11   3  70 NW12      30.57R WCI  -3
$$

ILZ028>032-037-038-041>044-048-051>054-059>061-130600-
CENTRAL ILLINOIS

CITY           SKY/WX    TMP DP  RH WIND       PRES   REMARKS
BLOOMINGTON    PTCLDY    12   2  64 NW16G22   30.46R WCI  -5
DECATUR        CLEAR     14   2  58 NW10      30.47R WCI   1
PEORIA         CLEAR     11  -1  58 NW12G17   30.52R WCI  -3
LACON*         CLEAR     11  -1  57 NW10G20   30.50R WCI  -3
LINCOLN*       CLEAR     13   3  62 NW9G17    30.50R WCI   1
SPRINGFIELD    CLEAR     15   2  56 NW15      30.51R WCI   0
TAYLORVILLE    NOT AVBL
$$

ILZ033-039-045-046-055>057-062-063-130600-
EAST-CENTRAL ILLINOIS

CITY           SKY/WX    TMP DP  RH WIND       PRES   REMARKS
CHAMPAIGN      CLEAR     13   4  67 NW16      30.44R WCI  -3
MATTOON        CLEAR     14   4  64 NW17      30.45R WCI  -3
$$

ILZ079-100>102-130600-
SOUTHWEST ILLINOIS

CITY           SKY/WX    TMP DP  RH WIND       PRES   REMARKS
ALTON          CLEAR     18   6  59 NW8G16    30.52R WCI   8
BELLEVILLE     CLEAR     20   6  54 NW16G23   30.51R WCI   5
CAHOKIA*       CLEAR     21   2  43 N18G25    30.53R WCI   6
SPARTA*        CLEAR     22   9  57 NW14      30.50R WCI   9
$$

ILZ064>066-069>071-074>076-080>082-084>086-088>090-092>094-130600-
SOUTH-CENTRAL ILLINOIS

CITY           SKY/WX    TMP DP  RH WIND       PRES   REMARKS
CARBONDALE     CLEAR     23  10  57 N14       30.49R WCI  11
MARION         PTCLDY    25  12  58 NW8       30.48R WCI  16
MT. VERNON     PTCLDY    21   7  53 NW5       30.47R WCI  15
CENTRALIA*     CLEAR     22  11  62 NW15G23   30.47R WCI   9
SALEM*         CLEAR     21   8  56 N16G24    30.48R WCI   7
$$

ILZ067-068-072-073-078-083-087-091-130600-
SOUTHEAST ILLINOIS

CITY           SKY/WX    TMP DP  RH WIND       PRES   REMARKS
LAWRENCEVILLE  CLEAR     20   4  50 N17       30.45R WCI   5
HARRISBURG*    CLEAR     24  13  64 NW10      30.47R WCI  13
ROBINSON*      PTCLDY    18   5  58 NW14      30.47R WCI   4
$$

ABBREVIATIONS USED IN REMARKS
   TC - TEMPERATURE IN CELSIUS
  WCI - WIND CHILL INDEX
   HX - HEAT INDEX
  VSB - VISIBILITY
$$





USA.gov is the U.S. government's official web portal to all federal, state and local government web resources and services.